| time (UTC) | temp F | wind direction | speed MPH | gust MPH | rain 1hr in | rain 24hr in | rain mn in | humidity % | barometer mb |
| 20260504050503 | 40 | 180 | 1.0 | 1.0 | 0.00 | 0.00 | 0.00 | 81 | 976.3 |
| 20260504050004 | 40 | 180 | 0.0 | 0.0 | 0.00 | 0.00 | 0.00 | 79 | 976.2 |
| 20260504045504 | 41 | 180 | 0.0 | 0.0 | 0.00 | 0.00 | 0.00 | 79 | 976.2 |
| 20260504044504 | 41 | 202 | 0.0 | 1.0 | 0.00 | 0.00 | 0.00 | 78 | 976.2 |
| 20260504043503 | 41 | 180 | 0.0 | 0.0 | 0.00 | 0.00 | 0.00 | 75 | 976.0 |
| 20260504043004 | 41 | 180 | 0.0 | 0.0 | 0.00 | 0.00 | 0.00 | 75 | 976.0 |
| 20260504042504 | 41 | 158 | 0.0 | 0.0 | 0.00 | 0.00 | 0.00 | 75 | 976.0 |
| 20260504042004 | 41 | 225 | 0.0 | 0.0 | 0.00 | 0.00 | 0.00 | 73 | 976.0 |
| 20260504041504 | 41 | 225 | 0.0 | 0.0 | 0.00 | 0.00 | 0.00 | 73 | 976.0 |
| 20260504040504 | 42 | 248 | 1.0 | 2.0 | 0.00 | 0.00 | 0.00 | 72 | 975.9 |
| 20260504040004 | 42 | 225 | 0.0 | 0.0 | 0.00 | 0.00 | 0.00 | 69 | 975.7 |
| 20260504035504 | 42 | 202 | 1.0 | 1.0 | 0.00 | 0.00 | 0.00 | 70 | 975.7 |
| 20260504035004 | 42 | 202 | 0.0 | 0.0 | 0.00 | 0.00 | 0.00 | 68 | 975.7 |
| 20260504034505 | 42 | 202 | 0.0 | 0.0 | 0.00 | 0.00 | 0.00 | 68 | 975.6 |
| 20260504034004 | 42 | 225 | 0.0 | 0.0 | 0.00 | 0.00 | 0.00 | 67 | 975.6 |
| 20260504033504 | 42 | 225 | 0.0 | 0.0 | 0.00 | 0.00 | 0.00 | 67 | 975.7 |
| 20260504032504 | 43 | 202 | 0.0 | 0.0 | 0.00 | 0.00 | 0.00 | 68 | 975.7 |
| 20260504031503 | 43 | 196 | 0.0 | 1.0 | 0.00 | 0.00 | 0.00 | 69 | 975.7 |
| 20260504031004 | 43 | 248 | 1.0 | 1.0 | 0.00 | 0.00 | 0.00 | 69 | 975.7 |
| 20260504030504 | 43 | 248 | 0.0 | 0.0 | 0.00 | 0.00 | 0.00 | 68 | 975.7 |
| 20260504030004 | 43 | 248 | 0.0 | 0.0 | 0.00 | 0.00 | 0.00 | 67 | 975.7 |
| 20260504025504 | 43 | 248 | 0.0 | 0.0 | 0.00 | 0.00 | 0.00 | 66 | 975.7 |
| 20260504025005 | 43 | 248 | 0.0 | 0.0 | 0.00 | 0.00 | 0.00 | 68 | 975.7 |
| 20260504024503 | 44 | 248 | 0.0 | 0.0 | 0.00 | 0.00 | 0.00 | 69 | 975.8 |
| 20260504024004 | 44 | 248 | 0.0 | 0.0 | 0.00 | 0.00 | 0.00 | 67 | 975.8 |
| 20260504023504 | 44 | 248 | 0.0 | 0.0 | 0.00 | 0.00 | 0.00 | 66 | 975.9 |
| 20260504023004 | 44 | 248 | 0.0 | 0.0 | 0.00 | 0.00 | 0.00 | 66 | 975.9 |
| 20260504022504 | 44 | 248 | 0.0 | 0.0 | 0.00 | 0.00 | 0.00 | 67 | 975.9 |
| 20260504021504 | 44 | 248 | 1.0 | 1.0 | 0.00 | 0.00 | 0.00 | 66 | 975.9 |
| 20260504021004 | 44 | 248 | 0.0 | 1.0 | 0.00 | 0.00 | 0.00 | 66 | 975.8 |
| 20260504020504 | 44 | 248 | 1.0 | 1.0 | 0.00 | 0.00 | 0.00 | 67 | 975.8 |
| 20260504015504 | 44 | 248 | 0.0 | 1.0 | 0.00 | 0.00 | 0.00 | 66 | 975.6 |
| 20260504015004 | 45 | 248 | 0.0 | 0.0 | 0.00 | 0.00 | 0.00 | 66 | 975.6 |
| 20260504014005 | 45 | 248 | 0.0 | 0.0 | 0.00 | 0.00 | 0.00 | 64 | 975.6 |
| 20260504013504 | 45 | 248 | 1.0 | 2.0 | 0.00 | 0.00 | 0.00 | 66 | 975.5 |
| 20260504013004 | 45 | 248 | 0.0 | 2.0 | 0.00 | 0.00 | 0.00 | 63 | 975.5 |
| 20260504012504 | 46 | 248 | 1.0 | 2.0 | 0.00 | 0.00 | 0.00 | 62 | 975.4 |
| 20260504012004 | 46 | 248 | 1.0 | 1.0 | 0.00 | 0.00 | 0.00 | 60 | 975.4 |
| 20260504011504 | 46 | 248 | 0.0 | 0.0 | 0.00 | 0.00 | 0.00 | 61 | 975.4 |
| 20260504011004 | 46 | 248 | 1.0 | 1.0 | 0.00 | 0.00 | 0.00 | 59 | 975.3 |
| 20260504010504 | 47 | 248 | 0.0 | 0.0 | 0.00 | 0.00 | 0.00 | 59 | 975.3 |
| 20260504010004 | 47 | 248 | 0.0 | 1.0 | 0.00 | 0.00 | 0.00 | 60 | 975.1 |
| 20260504005504 | 47 | 248 | 1.0 | 2.0 | 0.00 | 0.00 | 0.00 | 57 | 975.1 |
| 20260504005004 | 48 | 225 | 1.0 | 1.0 | 0.00 | 0.00 | 0.00 | 57 | 975.1 |
| 20260504004004 | 49 | 225 | 0.0 | 0.0 | 0.00 | 0.00 | 0.00 | 55 | 975.1 |
| 20260504003504 | 49 | 225 | 0.0 | 0.0 | 0.00 | 0.00 | 0.00 | 54 | 974.9 |
| 20260504003005 | 50 | 225 | 0.0 | 0.0 | 0.00 | 0.00 | 0.00 | 54 | 974.9 |
| 20260504002504 | 50 | 225 | 0.0 | 0.0 | 0.00 | 0.00 | 0.00 | 54 | 974.8 |
| 20260504001504 | 51 | 248 | 1.0 | 2.0 | 0.00 | 0.00 | 0.00 | 53 | 974.8 |
| 20260504001004 | 52 | 248 | 0.0 | 1.0 | 0.00 | 0.00 | 0.00 | 51 | 974.7 |
| 20260504000004 | 53 | 225 | 0.0 | 0.0 | 0.00 | 0.00 | 0.00 | 50 | 974.6 |
| 20260503235504 | 54 | 225 | 1.0 | 1.0 | 0.00 | 0.00 | 0.00 | 45 | 974.6 |
| 20260503235004 | 54 | 225 | 1.0 | 2.0 | 0.00 | 0.00 | 0.00 | 45 | 974.5 |
| 20260503234505 | 54 | 261 | 2.0 | 2.0 | 0.00 | 0.00 | 0.00 | 44 | 974.5 |
| 20260503234020 | 55 | 258 | 2.0 | 5.0 | 0.00 | 0.00 | 0.00 | 43 | 974.5 |
| 20260503233504 | 55 | 237 | 2.0 | 3.0 | 0.00 | 0.00 | 0.00 | 43 | 974.4 |
| 20260503233004 | 55 | 220 | 2.0 | 3.0 | 0.00 | 0.00 | 0.00 | 43 | 974.4 |
| 20260503232504 | 56 | 322 | 3.0 | 5.0 | 0.00 | 0.00 | 0.00 | 42 | 974.3 |
| 20260503232004 | 56 | 267 | 3.0 | 8.0 | 0.00 | 0.00 | 0.00 | 42 | 974.3 |
| 20260503231504 | 56 | 252 | 3.0 | 5.0 | 0.00 | 0.00 | 0.00 | 41 | 974.2 |
| 20260503231003 | 56 | 226 | 3.0 | 8.0 | 0.00 | 0.00 | 0.00 | 41 | 974.2 |
| 20260503230504 | 57 | 248 | 3.0 | 6.0 | 0.00 | 0.00 | 0.00 | 41 | 974.2 |
| 20260503230004 | 57 | 270 | 3.0 | 5.0 | 0.00 | 0.00 | 0.00 | 40 | 974.3 |
| 20260503225005 | 58 | 270 | 5.0 | 6.0 | 0.00 | 0.00 | 0.00 | 39 | 974.2 |
| 20260503224504 | 58 | 248 | 3.0 | 5.0 | 0.00 | 0.00 | 0.00 | 40 | 974.2 |
| 20260503224004 | 58 | 248 | 4.0 | 8.0 | 0.00 | 0.00 | 0.00 | 40 | 974.2 |
| 20260503223505 | 58 | 267 | 4.0 | 8.0 | 0.00 | 0.00 | 0.00 | 40 | 974.2 |
| 20260503223004 | 58 | 257 | 3.0 | 6.0 | 0.00 | 0.00 | 0.00 | 40 | 974.2 |
| 20260503222504 | 58 | 287 | 3.0 | 9.0 | 0.00 | 0.00 | 0.00 | 39 | 974.2 |
| 20260503222004 | 58 | 250 | 6.0 | 8.0 | 0.00 | 0.00 | 0.00 | 39 | 974.2 |
| 20260503221504 | 57 | 242 | 3.0 | 9.0 | 0.00 | 0.00 | 0.00 | 40 | 974.2 |
| 20260503221004 | 57 | 270 | 3.0 | 9.0 | 0.00 | 0.00 | 0.00 | 39 | 974.2 |
| 20260503220504 | 57 | 248 | 4.0 | 6.0 | 0.00 | 0.00 | 0.00 | 39 | 974.2 |
| 20260503215503 | 58 | 277 | 5.0 | 10.0 | 0.00 | 0.00 | 0.00 | 38 | 974.0 |
| 20260503215004 | 58 | 225 | 5.0 | 12.0 | 0.00 | 0.00 | 0.00 | 37 | 974.0 |
| 20260503214504 | 59 | 209 | 3.0 | 7.0 | 0.00 | 0.00 | 0.00 | 37 | 974.0 |
| 20260503214004 | 59 | 243 | 4.0 | 7.0 | 0.00 | 0.00 | 0.00 | 37 | 974.0 |
| 20260503213504 | 59 | 251 | 6.0 | 8.0 | 0.00 | 0.00 | 0.00 | 37 | 973.8 |
| 20260503213004 | 60 | 265 | 5.0 | 13.0 | 0.00 | 0.00 | 0.00 | 36 | 973.8 |
| 20260503212504 | 59 | 112 | 4.0 | 6.0 | 0.00 | 0.00 | 0.00 | 36 | 973.7 |
| 20260503212004 | 59 | 248 | 7.0 | 10.0 | 0.00 | 0.00 | 0.00 | 35 | 973.7 |
| 20260503211504 | 60 | 292 | 6.0 | 9.0 | 0.00 | 0.00 | 0.00 | 35 | 973.7 |
| 20260503211004 | 62 | 130 | 5.0 | 8.0 | 0.00 | 0.00 | 0.00 | 34 | 973.8 |
| 20260503210504 | 62 | 250 | 3.0 | 8.0 | 0.00 | 0.00 | 0.00 | 33 | 973.8 |
| 20260503210005 | 62 | 225 | 3.0 | 5.0 | 0.00 | 0.00 | 0.00 | 34 | 973.9 |
| 20260503205004 | 62 | 214 | 5.0 | 8.0 | 0.00 | 0.00 | 0.00 | 32 | 973.9 |
| 20260503204504 | 62 | 248 | 6.0 | 8.0 | 0.00 | 0.00 | 0.00 | 32 | 973.9 |
| 20260503204004 | 62 | 253 | 6.0 | 9.0 | 0.00 | 0.00 | 0.00 | 32 | 973.9 |
| 20260503203504 | 61 | 248 | 5.0 | 5.0 | 0.00 | 0.00 | 0.00 | 34 | 974.1 |
| 20260503202504 | 61 | 210 | 6.0 | 8.0 | 0.00 | 0.00 | 0.00 | 34 | 974.1 |
| 20260503202004 | 60 | 184 | 3.0 | 6.0 | 0.00 | 0.00 | 0.00 | 35 | 974.1 |
| 20260503201504 | 61 | 135 | 3.0 | 3.0 | 0.00 | 0.00 | 0.00 | 34 | 974.1 |
| 20260503201004 | 61 | 225 | 6.0 | 7.0 | 0.00 | 0.00 | 0.00 | 34 | 974.3 |
| 20260503200504 | 60 | 168 | 6.0 | 7.0 | 0.00 | 0.00 | 0.00 | 35 | 974.3 |
| 20260503195504 | 61 | 224 | 3.0 | 6.0 | 0.00 | 0.00 | 0.00 | 34 | 974.4 |
| 20260503195005 | 59 | 248 | 3.0 | 9.0 | 0.00 | 0.00 | 0.00 | 35 | 974.5 |
| 20260503194504 | 58 | 231 | 3.0 | 8.0 | 0.00 | 0.00 | 0.00 | 36 | 974.6 |
| 20260503194004 | 58 | 170 | 3.0 | 8.0 | 0.00 | 0.00 | 0.00 | 36 | 974.6 |
| 20260503193504 | 58 | 69 | 5.0 | 8.0 | 0.00 | 0.00 | 0.00 | 36 | 974.6 |
| 20260503193004 | 57 | 256 | 5.0 | 10.0 | 0.00 | 0.00 | 0.00 | 35 | 974.6 |
| 20260503192504 | 58 | 219 | 5.0 | 8.0 | 0.00 | 0.00 | 0.00 | 36 | 974.7 |
| 20260503192005 | 58 | 244 | 6.0 | 6.0 | 0.00 | 0.00 | 0.00 | 36 | 974.7 |
| 20260503191004 | 60 | 270 | 7.0 | 7.0 | 0.00 | 0.00 | 0.00 | 35 | 974.9 |
| 20260503190504 | 60 | 261 | 5.0 | 8.0 | 0.00 | 0.00 | 0.00 | 33 | 974.9 |
| 20260503190004 | 61 | 270 | 4.0 | 9.0 | 0.00 | 0.00 | 0.00 | 35 | 974.9 |
| 20260503185504 | 61 | 188 | 6.0 | 10.0 | 0.00 | 0.00 | 0.00 | 35 | 974.9 |
| 20260503185004 | 61 | 204 | 6.0 | 13.0 | 0.00 | 0.00 | 0.00 | 34 | 975.0 |
| 20260503184504 | 60 | 248 | 6.0 | 13.0 | 0.00 | 0.00 | 0.00 | 35 | 975.1 |
| 20260503184004 | 60 | 270 | 9.0 | 13.0 | 0.00 | 0.00 | 0.00 | 35 | 975.1 |
| 20260503183504 | 61 | 225 | 4.0 | 6.0 | 0.00 | 0.00 | 0.00 | 35 | 975.0 |
| 20260503183005 | 61 | 230 | 5.0 | 7.0 | 0.00 | 0.00 | 0.00 | 35 | 975.0 |
| 20260503182005 | 60 | 270 | 7.0 | 8.0 | 0.00 | 0.00 | 0.00 | 35 | 975.2 |
| 20260503181504 | 58 | 133 | 3.0 | 9.0 | 0.00 | 0.00 | 0.00 | 37 | 975.2 |
| 20260503181004 | 58 | 180 | 5.0 | 8.0 | 0.00 | 0.00 | 0.00 | 36 | 975.3 |
| 20260503180504 | 58 | 260 | 5.0 | 12.0 | 0.00 | 0.00 | 0.00 | 36 | 975.3 |
| 20260503180004 | 58 | 270 | 5.0 | 8.0 | 0.00 | 0.00 | 0.00 | 36 | 975.4 |
| 20260503175004 | 57 | 157 | 3.0 | 7.0 | 0.00 | 0.00 | 0.00 | 38 | 975.4 |
| 20260503174504 | 58 | 270 | 6.0 | 13.0 | 0.00 | 0.00 | 0.00 | 36 | 975.4 |
| 20260503174004 | 57 | 225 | 3.0 | 10.0 | 0.00 | 0.00 | 0.00 | 36 | 975.4 |
| 20260503173504 | 58 | 112 | 6.0 | 9.0 | 0.00 | 0.00 | 0.00 | 36 | 975.5 |
| 20260503173004 | 57 | 0 | 6.0 | 10.0 | 0.00 | 0.00 | 0.00 | 37 | 975.5 |
| 20260503172504 | 54 | 138 | 5.0 | 6.0 | 0.00 | 0.00 | 0.00 | 40 | 975.7 |
| 20260503172004 | 55 | 348 | 6.0 | 8.0 | 0.00 | 0.00 | 0.00 | 39 | 975.7 |
| 20260503171504 | 57 | 152 | 5.0 | 8.0 | 0.00 | 0.00 | 0.00 | 37 | 975.7 |
| 20260503151004 | 47 | 248 | 5.0 | 7.0 | 0.00 | 0.00 | 0.00 | 55 | 976.3 |
| 20260503150504 | 47 | 157 | 5.0 | 10.0 | 0.00 | 0.00 | 0.00 | 55 | 976.3 |
| 20260503131004 | 49 | 9 | 3.0 | 10.0 | 0.00 | 0.00 | 0.00 | 57 | 976.4 |
| 20260503130504 | 49 | 248 | 3.0 | 5.0 | 0.00 | 0.00 | 0.00 | 59 | 976.4 |
| 20260503110504 | 39 | 252 | 3.0 | 5.0 | 0.00 | 0.00 | 0.00 | 78 | 975.6 |
| 20260503090504 | 39 | 196 | 2.0 | 3.0 | 0.00 | 0.00 | 0.00 | 76 | 974.8 |
| 20260503081504 | 40 | 225 | 2.0 | 5.0 | 0.00 | 0.00 | 0.00 | 73 | 974.7 |
| 20260503081004 | 40 | 183 | 3.0 | 5.0 | 0.00 | 0.00 | 0.00 | 73 | 974.8 |
| 20260503080503 | 40 | 209 | 2.0 | 6.0 | 0.00 | 0.00 | 0.00 | 72 | 974.8 |
| 20260503072504 | 41 | 20 | 3.0 | 7.0 | 0.00 | 0.02 | 0.00 | 69 | 974.6 |
| 20260503072004 | 41 | 188 | 2.0 | 3.0 | 0.00 | 0.02 | 0.00 | 69 | 974.6 |
| 20260503071004 | 41 | 90 | 3.0 | 6.0 | 0.00 | 0.04 | 0.00 | 68 | 974.6 |